Location: Unspecified
(0.0000°N, 0.0000°E)
Time: 00:42:59
(UTC+00:00)

PRISM - Pass Details

Date: 01 July 2022
Orbit: 554 x 578 km, 98.2° (Epoch: 14 August)

Event Time Altitude Azimuth Distance (km) Brightness Sun altitude
Rises 04:24:15 0° 18° (NNE) 2,717 ? -22.8°
Reaches altitude 10° 04:26:23 10° 22° (NNE) 1,827 ? -22.3°
Maximum altitude 04:30:17 59° 102° (ESE) 644 ? -21.4°
Enters shadow 04:32:19 26° 173° (S) 1,108 ? -21.0°
